EDT,Max TemperatureF,Mean TemperatureF,Min TemperatureF,Max Dew PointF,MeanDew PointF,Min DewpointF,Max Humidity, Mean Humidity, Min Humidity, Max Sea Level PressureIn, Mean Sea Level PressureIn, Min Sea Level PressureIn, Max VisibilityMiles, Mean VisibilityMiles, Min VisibilityMiles, Max Wind SpeedMPH, Mean Wind SpeedMPH, Max Gust SpeedMPH,PrecipitationIn, CloudCover, Events, WindDirDegrees
2013-6-1,90,77,63,70,66,62,93,67,41,29.96,29.88,29.79,10,9,3,17,6,23,0.00,1,,192
2013-6-2,85,74,62,70,66,62,100,83,65,29.81,29.74,29.68,10,6,0,16,5,23,0.76,5,Fog-Rain-Thunderstorm,196
2013-6-3,70,59,47,61,54,34,100,70,40,29.92,29.83,29.80,10,6,0,16,6,22,0.00,3,Fog,231
2013-6-4,72,57,41,46,42,39,89,62,35,30.14,29.99,29.93,10,10,9,18,6,25,0.00,0,,335
2013-6-5,71,57,43,48,45,41,96,68,40,30.22,30.16,30.10,10,10,10,10,3,15,0.00,0,,66
2013-6-6,73,61,49,54,49,43,93,69,44,30.16,30.10,30.05,10,9,4,13,3,20,0.31,5,Rain,83
2013-6-7,57,55,53,54,53,51,100,93,86,30.05,29.97,29.85,10,4,2,10,6,13,0.82,8,Rain,36
2013-6-8,68,61,54,62,56,51,97,87,76,30.04,29.87,29.75,10,9,2,12,4,33,0.22,8,Rain,41
2013-6-9,76,65,53,58,56,52,93,68,43,30.18,30.10,30.04,10,9,2,14,4,16,0.00,5,,186
2013-6-10,73,61,49,63,56,48,97,75,53,30.19,30.10,29.91,10,6,0,9,3,13,0.74,4,Fog-Rain,13
2013-6-11,62,60,58,61,58,56,100,94,87,29.88,29.67,29.57,10,4,1,8,4,20,0.95,8,Rain,52
2013-6-12,72,62,52,56,52,49,93,70,47,29.85,29.76,29.62,10,10,7,24,7,39,T,6,Rain,7
2013-6-13,60,54,47,57,52,46,100,93,86,29.84,29.76,29.70,10,4,0,9,2,12,0.58,5,Fog-Rain,8
2013-6-14,77,65,53,57,52,48,93,65,36,29.86,29.76,29.70,10,10,10,20,6,25,0.01,3,Thunderstorm,344
2013-6-15,78,62,46,50,46,39,93,60,26,29.98,29.93,29.86,10,10,10,13,4,17,0.00,0,,200
2013-6-16,71,61,50,62,55,46,100,79,57,29.94,29.82,29.70,10,8,2,16,5,23,0.07,4,Rain,193
2013-6-17,79,65,51,64,56,52,100,75,50,29.93,29.83,29.79,10,4,0,20,4,26,0.08,3,Fog-Rain-Thunderstorm,238
2013-6-18,64,57,49,56,52,48,100,84,67,30.01,29.95,29.91,10,6,0,17,3,25,0.04,3,Fog-Rain,11
2013-6-19,70,59,47,50,43,38,89,60,31,30.19,30.08,29.99,10,10,10,16,5,22,0.00,0,,26
2013-6-20,78,60,42,54,46,41,100,66,31,30.28,30.22,30.17,10,8,0,14,3,21,0.00,0,Fog,171
2013-6-21,82,66,50,58,53,48,100,68,36,30.27,30.23,30.19,10,9,2,12,3,14,0.00,1,,150
2013-6-22,83,69,54,67,60,54,100,77,54,30.21,30.15,30.06,10,7,2,14,5,20,0.01,2,Rain,183
2013-6-23,89,78,66,72,66,62,97,77,56,30.11,30.05,29.94,10,8,0,24,7,36,T,4,Fog-Rain,200
2013-6-24,91,78,64,72,68,63,93,79,65,30.01,29.96,29.90,10,8,4,17,5,22,0.09,2,Rain-Thunderstorm,172
2013-6-25,88,77,65,72,68,64,100,76,51,29.96,29.84,29.75,9,5,2,18,6,23,0.05,5,Rain-Thunderstorm,181
2013-6-26,78,71,63,71,67,64,100,84,67,29.81,29.78,29.74,10,3,0,9,2,15,0.17,5,Fog-Rain,155
2013-6-27,86,74,61,71,65,61,100,74,48,29.81,29.78,29.64,10,4,0,12,3,16,0.05,4,Fog-Rain,146
2013-6-28,80,73,65,69,65,62,93,78,62,29.62,29.47,29.39,10,7,2,24,10,33,1.13,7,Rain,124
2013-6-29,80,71,61,67,64,60,100,79,58,29.68,29.54,29.48,10,8,1,22,4,28,0.01,5,Rain,200
2013-6-30,83,72,60,68,64,60,100,79,58,29.92,29.79,29.69,10,6,0,17,5,24,0.01,3,Fog-Rain,183